CW2613 Palm City FL US current weather conditions

sailwx.info

Wind from 115 at 0 knots gusting 3

Air temperature 11.7° C
Dewpoint 9.7° C

Last reported at 2020-Jan-21 05:00 UTC.
Time now 2020-Jan-21 05:39 UTC

Location: N 27°08' W 080°20'.
View on Google Maps.

See reports from other nearby stations

  
Tides and Currents Weather Stations Pressure Air Temp Water Temp Dewpoint Dewpoint Depression Visibility Wind Speed Wind Dir Waves Ship Positions
date/time (UTC)wind fromknots sea level pressurealtimeterstation pressurevisibilityair tempwater tempwave heightnotes
2020-Jan-21 05:00 115 0 gusting 3 11.7
2020-Jan-21 04:47 155 0 gusting 2 11.7
2020-Jan-21 04:17 127 11.7
2020-Jan-21 04:03 146 0 gusting 2 12.2
2020-Jan-21 03:17 148 0 gusting 3 12.2
2020-Jan-21 03:02 146 0 gusting 2 12.8
2020-Jan-21 02:45 131 0 gusting 2 12.8
2020-Jan-21 02:30 153 12.8
2020-Jan-21 02:00 146 13.3
2020-Jan-21 01:46 150 0 gusting 2 13.3
2020-Jan-21 01:30 153 13.3
2020-Jan-21 01:15 150 13.3
2020-Jan-21 01:00 139 13.3
2020-Jan-21 00:15 136 0 gusting 4 13.9
2020-Jan-21 00:00 154 14.4
2020-Jan-20 23:46 156 14.4
2020-Jan-20 23:30 162 14.4
2020-Jan-20 23:01 165 0 gusting 2 15.0
2020-Jan-20 22:47 142 0 gusting 2 15.6
2020-Jan-20 22:32 160 0 gusting 3 16.1
2020-Jan-20 22:16 159 0 gusting 4 16.7
2020-Jan-20 21:15 195 18.3
2020-Jan-20 21:00 18.9
2020-Jan-20 20:16 137 0 gusting 4 19.4
2020-Jan-20 20:00 165 19.4
2020-Jan-20 19:30 156 0 gusting 3 20.0
2020-Jan-20 19:15 166 19.4
2020-Jan-20 19:00 155 19.4
2020-Jan-20 18:45 162 19.4
2020-Jan-20 18:30 120 1 19.4
2020-Jan-20 18:00 152 1 gusting 3 18.9
2020-Jan-20 17:30 172 18.3
2020-Jan-20 17:02 136 0 gusting 4 17.8
2020-Jan-20 17:00 141 0 gusting 4 17.8
2020-Jan-20 16:48 169 0 gusting 5 17.8
2020-Jan-20 16:32 153 0 gusting 3 17.2
2020-Jan-20 15:45 120 0 gusting 4 16.1
2020-Jan-20 15:30 158 1 gusting 4 16.1
2020-Jan-20 15:16 137 0 gusting 4 16.1
2020-Jan-20 15:01 167 1 gusting 5 16.1
2020-Jan-20 14:45 155 0 gusting 5 16.1
2020-Jan-20 14:30 150 16.1
2020-Jan-20 14:15 160 0 gusting 4 16.1
2020-Jan-20 13:50 188 16.1
2020-Jan-20 13:32 139 0 gusting 4 16.1
2020-Jan-20 13:16 150 0 gusting 5 16.1
2020-Jan-20 13:02 136 0 gusting 4 16.1
2020-Jan-20 12:45 192 0 gusting 4 16.1
2020-Jan-20 12:30 167 0 gusting 4 16.1
2020-Jan-20 12:01 145 1 gusting 4 16.7
2020-Jan-20 11:45 140 0 gusting 3 16.7
2020-Jan-20 11:30 160 1 gusting 4 16.7
2020-Jan-20 11:02 137 0 gusting 4 17.2
2020-Jan-20 10:45 161 0 gusting 4 17.8
2020-Jan-20 10:30 160 1 gusting 5 17.8
2020-Jan-20 10:01 165 0 gusting 3 18.9
2020-Jan-20 09:46 200 1 gusting 4 18.9
2020-Jan-20 09:31 146 0 gusting 5 18.9
2020-Jan-20 09:00 147 19.4
2020-Jan-20 08:46 143 19.4
2020-Jan-20 08:31 149 19.4
2020-Jan-20 08:01 147 20.0
2020-Jan-20 07:47 147 20.0
2020-Jan-20 07:31 147 20.0
2020-Jan-20 07:02 143 20.0
2020-Jan-20 06:47 146 20.0
2020-Jan-20 06:30 154 20.0
2020-Jan-20 06:15 148 20.0
2020-Jan-20 06:00 148 20.0
2020-Jan-20 05:30 152 20.0
2020-Jan-20 05:16 152 20.0
2020-Jan-20 05:02 156 20.0
2020-Jan-20 04:31 157 20.0
2020-Jan-20 04:15 157 20.0
2020-Jan-20 04:00 21.1
2020-Jan-20 03:30 168 21.1
2020-Jan-20 03:15 152 21.1
2020-Jan-20 02:45 148 21.7
2020-Jan-20 02:31 146 21.7
2020-Jan-20 02:15 144 22.2
2020-Jan-20 01:45 145 22.2
2020-Jan-20 01:31 150 21.7
2020-Jan-20 01:15 149 20.6
2020-Jan-20 00:45 164 20.0
2020-Jan-20 00:30 151 20.0
2020-Jan-20 00:00 150 20.6
2020-Jan-19 23:45 150 21.7
2020-Jan-19 23:30 150 21.7
2020-Jan-19 23:15 150 22.2
2020-Jan-19 22:46 150 24.4
2020-Jan-19 22:30 148 25.6
2020-Jan-19 22:16 139 26.1
2020-Jan-19 21:46 146 1 gusting 6 26.7
2020-Jan-19 21:32 146 26.7
2020-Jan-19 21:16 122 0 gusting 3 26.7
2020-Jan-19 20:45 139 27.2
2020-Jan-19 20:30 107 0 gusting 5 27.2
2020-Jan-19 20:15 145 1 gusting 6 27.8
2020-Jan-19 20:01 146 0 gusting 6 27.2
2020-Jan-19 19:31 155 2 gusting 6 26.7
2020-Jan-19 19:16 173 26.7
2020-Jan-19 19:02 144 0 gusting 6 26.1
2020-Jan-19 18:30 150 0 gusting 4 26.1
2020-Jan-19 18:15 136 0 gusting 6 26.1
2020-Jan-19 18:00 133 26.7
2020-Jan-19 17:45 075 26.1
2020-Jan-19 17:30 202 0 gusting 8 26.1
2020-Jan-19 17:01 136 0 gusting 6 25.6
2020-Jan-19 16:47 320 1 gusting 11 25.0
2020-Jan-19 16:32 134 0 gusting 5 24.4
2020-Jan-19 16:01 136 1 gusting 6 24.4
2020-Jan-19 15:46 009 0 gusting 4 24.4
2020-Jan-19 15:31 156 0 gusting 6 23.9
2020-Jan-19 15:00 160 22.8
2020-Jan-19 14:46 347 22.2
2020-Jan-19 14:15 154 0 gusting 3 21.1
2020-Jan-19 14:00 150 20.6
2020-Jan-19 13:45 176 20.0
2020-Jan-19 13:31 158 18.9
2020-Jan-19 13:15 147 17.8
2020-Jan-19 12:45 151 15.6
2020-Jan-19 12:30 151 15.6
2020-Jan-19 12:15 150 15.6
2020-Jan-19 11:46 150 15.6
2020-Jan-19 11:31 150 15.6
2020-Jan-19 11:16 150 16.1
2020-Jan-19 10:45 148 15.6
2020-Jan-19 10:31 161 15.6
2020-Jan-19 10:15 155 15.6
2020-Jan-19 09:45 155 15.6
2020-Jan-19 09:30 155 15.6
2020-Jan-19 09:15 155 15.6
2020-Jan-19 08:45 165 15.6
2020-Jan-19 08:31 165 15.6
2020-Jan-19 08:16 165 15.6
2020-Jan-19 07:48 165 16.1
2020-Jan-19 07:32 165 16.1
2020-Jan-19 07:17 165 16.1
2020-Jan-19 06:45 165 15.6
2020-Jan-19 06:30 165 15.6
2020-Jan-19 06:15 165 16.1
2020-Jan-19 05:47 165 16.1
2020-Jan-19 05:30 165 16.7
2020-Jan-19 05:16 165 16.7